Satellite: PO-28
Catalog number: 22829
Epoch time:      08178.47606885
Element set:     978
Inclination:      098.3655 deg
RA of node:       140.1575 deg
Eccentricity:    0.0009456
Arg of perigee:   196.4060 deg
Mean anomaly:     163.6809 deg
Mean motion:   14.30191848 rev/day
Decay rate:        7.0e-08 rev/day^2
Epoch rev:           76945
Checksum:              356

Satellite: GO-32
Catalog number: 25397
Epoch time:      08177.68801031
Element set:     631
Inclination:      098.3627 deg
RA of node:       212.4308 deg
Eccentricity:    0.0000953
Arg of perigee:   167.5430 deg
Mean anomaly:     192.5774 deg
Mean motion:   14.23145437 rev/day
Decay rate:        4.1e-07 rev/day^2
Epoch rev:           51742
Checksum:              293

Satellite: NO-44
Catalog number: 26931
Epoch time:      08177.75135076
Element set:    0912
Inclination:      067.0531 deg
RA of node:       262.5938 deg
Eccentricity:    0.0006961
Arg of perigee:   272.7126 deg
Mean anomaly:     087.3200 deg
Mean motion:   14.29526455 rev/day
Decay rate:       1.01e-06 rev/day^2
Epoch rev:           35163
Checksum:              297

Satellite: SO-50
Catalog number: 27607
Epoch time:      08177.57036614
Element set:    0636
Inclination:      064.5594 deg
RA of node:       028.1810 deg
Eccentricity:    0.0085863
Arg of perigee:   277.8703 deg
Mean anomaly:     081.2665 deg
Mean motion:   14.71364875 rev/day
Decay rate:        6.2e-07 rev/day^2
Epoch rev:           29620
Checksum:              326

Satellite: CO-55
Catalog number: 27844
Epoch time:      08177.74789094
Element set:     336
Inclination:      098.7141 deg
RA of node:       185.8947 deg
Eccentricity:    0.0010974
Arg of perigee:   090.0170 deg
Mean anomaly:     270.2252 deg
Mean motion:   14.20585255 rev/day
Decay rate:        3.3e-07 rev/day^2
Epoch rev:           25865
Checksum:              328

Satellite: CO-57
Catalog number: 27848
Epoch time:      08177.60624624
Element set:     287
Inclination:      098.7150 deg
RA of node:       184.8500 deg
Eccentricity:    0.0010659
Arg of perigee:   093.3872 deg
Mean anomaly:     266.8525 deg
Mean motion:   14.20393917 rev/day
Decay rate:        3.1e-07 rev/day^2
Epoch rev:           25860
Checksum:              329

Satellite: AO-51
Catalog number: 28375
Epoch time:      08177.59192204
Element set:     132
Inclination:      098.0699 deg
RA of node:       201.6893 deg
Eccentricity:    0.0084373
Arg of perigee:   126.6226 deg
Mean anomaly:     234.2762 deg
Mean motion:   14.40611873 rev/day
Decay rate:        1.1e-07 rev/day^2
Epoch rev:           20961
Checksum:              304

Satellite: CO-56
Catalog number: 28941
Epoch time:      08178.51532985
Element set:     164
Inclination:      098.1076 deg
RA of node:       290.5010 deg
Eccentricity:    0.0163926
Arg of perigee:   007.6356 deg
Mean anomaly:     352.7331 deg
Mean motion:   15.57696816 rev/day
Decay rate:     2.2147e-04 rev/day^2
Epoch rev:           13149
Checksum:              330

Satellite: CP4
Catalog number: 31122
Epoch time:      08177.89490479
Element set:    0374
Inclination:      098.0412 deg
RA of node:       243.1651 deg
Eccentricity:    0.0084094
Arg of perigee:   302.0018 deg
Mean anomaly:     057.2984 deg
Mean motion:   14.55136551 rev/day
Decay rate:       5.49e-06 rev/day^2
Epoch rev:           06334
Checksum:              299

Satellite: CP3
Catalog number: 31128
Epoch time:      08177.94916730
Element set:    0366
Inclination:      098.0366 deg
RA of node:       241.0157 deg
Eccentricity:    0.0101966
Arg of perigee:   308.2533 deg
Mean anomaly:     050.9525 deg
Mean motion:   14.51954947 rev/day
Decay rate:       -4.8e-07 rev/day^2
Epoch rev:           06320
Checksum:              303

/EX
SB KEPS @ AMSAT  $ORB08178.W
Orbital Elements  08178.WEATHER

HR AMSAT ORBITAL ELEMENTS FOR WEATHER SATELLITES
FROM WA5QGD FORT WORTH,TX June 26, 2008
Send Subscribe/unsubscribe to KEPS at 
http://www.amsat.org/mailman/listinfo/keps
BID: ORB08178.W
TO ALL RADIO AMATEURS BT

Satellite: NOAA-10
Catalog number: 16969
Epoch time:      08178.12731561
Element set:     171
Inclination:      098.7205 deg
RA of node:       200.0785 deg
Eccentricity:    0.0012583
Arg of perigee:   151.5600 deg
Mean anomaly:     208.6271 deg
Mean motion:   14.27361837 rev/day
Decay rate:      -1.46e-06 rev/day^2
Epoch rev:           13271
Checksum:              285

Satellite: NOAA-11
Catalog number: 19531
Epoch time:      08178.29018312
Element set:     211
Inclination:      098.7977 deg
RA of node:       267.4890 deg
Eccentricity:    0.0012212
Arg of perigee:   045.4308 deg
Mean anomaly:     314.7856 deg
Mean motion:   14.14873283 rev/day
Decay rate:       2.06e-06 rev/day^2
Epoch rev:            1919
Checksum:              303

Satellite: NOAA-12
Catalog number: 21263
Epoch time:      08178.46685425
Element set:     727
Inclination:      098.7653 deg
RA of node:       180.4168 deg
Eccentricity:    0.0013517
Arg of perigee:   098.0007 deg
Mean anomaly:     262.2719 deg
Mean motion:   14.25537280 rev/day
Decay rate:       1.12e-06 rev/day^2
Epoch rev:           88971
Checksum:              317

